When you browse on this site, cookies collect data to enhance your experience and personalize the content and advertising you see.
Visit our Privacy Policy to learn more. By continuing to use the site, you agree to this use of cookies and data.
  • In France
  • List of Countries
  • For 7 days
  • Water Temperature
  • Weather Map
  • Weather Widgets
  • user-avatar
    Login

    Hourly Weather El Guna

    Today, 26 August, Monday

    Time Temperature Precipitation Wind Pressure Humidity
    00:00 +30°C° 0 mm 3 mps 729 mmHg 28%
    01:00 +30°C° 0 mm 2 mps 729 mmHg 28%
    02:00 +29°C° 0 mm 2 mps 729 mmHg 28%
    03:00 +29°C° 0 mm 2 mps 729 mmHg 30%
    04:00 +28°C° 0 mm 2 mps 729 mmHg 31%
    05:00 +28°C° 0 mm 2 mps 729 mmHg 33%
    06:00 +30°C° 0 mm 2 mps 730 mmHg 28%
    07:00 +34°C° 0 mm 2 mps 730 mmHg 24%
    08:00 +36°C° 0 mm 2 mps 730 mmHg 19%
    09:00 +38°C° 0 mm 3 mps 730 mmHg 18%
    10:00 +39°C° 0 mm 3 mps 731 mmHg 16%
    11:00 +42°C° 0 mm 3 mps 731 mmHg 14%
    12:00 +42°C° 0 mm 3 mps 730 mmHg 13%
    13:00 +43°C° 0 mm 4 mps 730 mmHg 13%
    14:00 +43°C° 0 mm 5 mps 729 mmHg 13%
    15:00 +43°C° 0 mm 4 mps 729 mmHg 14%
    16:00 +42°C° 0 mm 4 mps 729 mmHg 16%
    17:00 +41°C° 0 mm 4 mps 729 mmHg 17%
    18:00 +38°C° 0 mm 3 mps 729 mmHg 20%
    19:00 +36°C° 0 mm 3 mps 729 mmHg 23%
    20:00 +32°C° 0 mm 2 mps 729 mmHg 26%
    21:00 +32°C° 0 mm 2 mps 729 mmHg 25%
    22:00 +33°C° 0 mm 3 mps 730 mmHg 24%
    23:00 +31°C° 0 mm 3 mps 730 mmHg 23%

    Tomorrow, 27 August, Tuesday

    Time Temperature Precipitation Wind Pressure Humidity
    00:00 +31°C° 0 mm 2 mps 730 mmHg 24%
    01:00 +30°C° 0 mm 2 mps 729 mmHg 25%
    02:00 +29°C° 0 mm 2 mps 729 mmHg 26%
    03:00 +29°C° 0 mm 2 mps 729 mmHg 29%
    04:00 +28°C° 0 mm 2 mps 729 mmHg 31%
    05:00 +28°C° 0 mm 2 mps 729 mmHg 33%
    06:00 +30°C° 0 mm 3 mps 729 mmHg 30%
    07:00 +34°C° 0 mm 4 mps 730 mmHg 26%
    08:00 +36°C° 0 mm 5 mps 730 mmHg 23%
    09:00 +39°C° 0 mm 5 mps 730 mmHg 20%
    10:00 +40°C° 0 mm 5 mps 731 mmHg 18%
    11:00 +42°C° 0 mm 5 mps 731 mmHg 15%
    12:00 +42°C° 0 mm 6 mps 730 mmHg 14%
    13:00 +44°C° 0 mm 6 mps 730 mmHg 13%
    14:00 +45°C° 0 mm 6 mps 729 mmHg 12%
    15:00 +44°C° 0 mm 7 mps 729 mmHg 12%
    16:00 +43°C° 0 mm 7 mps 729 mmHg 13%
    17:00 +41°C° 0 mm 7 mps 729 mmHg 14%
    18:00 +39°C° 0 mm 6 mps 729 mmHg 17%
    19:00 +36°C° 0 mm 5 mps 729 mmHg 20%
    20:00 +34°C° 0 mm 5 mps 729 mmHg 23%
    21:00 +34°C° 0 mm 4 mps 729 mmHg 23%
    22:00 +33°C° 0 mm 4 mps 730 mmHg 24%
    23:00 +33°C° 0 mm 4 mps 730 mmHg 25%

    Day after tomorrow, 28 August, Wednesday

    Time Temperature Precipitation Wind Pressure Humidity
    00:00 +32°C° 0 mm 4 mps 730 mmHg 27%
    01:00 +30°C° 0 mm 4 mps 729 mmHg 30%
    02:00 +29°C° 0 mm 4 mps 729 mmHg 32%
    03:00 +29°C° 0 mm 3 mps 729 mmHg 34%
    04:00 +28°C° 0 mm 3 mps 729 mmHg 35%
    05:00 +28°C° 0 mm 3 mps 729 mmHg 37%
    06:00 +30°C° 0 mm 3 mps 729 mmHg 33%
    07:00 +33°C° 0 mm 4 mps 730 mmHg 29%
    08:00 +35°C° 0 mm 4 mps 730 mmHg 26%
    09:00 +36°C° 0 mm 4 mps 730 mmHg 22%
    10:00 +39°C° 0 mm 5 mps 730 mmHg 19%
    11:00 +40°C° 0 mm 5 mps 730 mmHg 15%
    12:00 +41°C° 0 mm 5 mps 729 mmHg 14%
    13:00 +42°C° 0 mm 6 mps 729 mmHg 12%
    14:00 +44°C° 0 mm 7 mps 728 mmHg 11%
    15:00 +43°C° 0 mm 7 mps 728 mmHg 11%
    16:00 +41°C° 0 mm 7 mps 728 mmHg 12%
    17:00 +41°C° 0 mm 8 mps 728 mmHg 12%
    18:00 +39°C° 0 mm 7 mps 728 mmHg 15%
    19:00 +36°C° 0 mm 6 mps 728 mmHg 19%
    20:00 +34°C° 0 mm 5 mps 729 mmHg 22%
    21:00 +33°C° 0 mm 4 mps 729 mmHg 25%
    22:00 +33°C° 0 mm 4 mps 729 mmHg 27%
    23:00 +32°C° 0 mm 4 mps 729 mmHg 30%

    29 August, Thursday

    Time Temperature Precipitation Wind Pressure Humidity
    00:00 +30°C° 0 mm 3 mps 729 mmHg 32%
    01:00 +30°C° 0 mm 3 mps 729 mmHg 34%
    02:00 +29°C° 0 mm 3 mps 728 mmHg 36%
    03:00 +29°C° 0 mm 3 mps 728 mmHg 37%
    04:00 +28°C° 0 mm 3 mps 728 mmHg 37%
    05:00 +28°C° 0 mm 4 mps 729 mmHg 37%
    06:00 +30°C° 0 mm 4 mps 729 mmHg 33%
    07:00 +33°C° 0 mm 5 mps 729 mmHg 30%
    08:00 +35°C° 0 mm 5 mps 729 mmHg 26%
    09:00 +36°C° 0 mm 5 mps 729 mmHg 23%
    10:00 +39°C° 0 mm 6 mps 729 mmHg 20%
    11:00 +40°C° 0 mm 6 mps 729 mmHg 18%
    12:00 +41°C° 0 mm 6 mps 729 mmHg 17%
    13:00 +42°C° 0 mm 6 mps 729 mmHg 16%
    14:00 +44°C° 0 mm 7 mps 728 mmHg 15%
    15:00 +43°C° 0 mm 7 mps 728 mmHg 16%
    16:00 +41°C° 0 mm 7 mps 728 mmHg 16%
    17:00 +40°C° 0 mm 7 mps 728 mmHg 17%
    18:00 +38°C° 0 mm 6 mps 728 mmHg 20%
    19:00 +35°C° 0 mm 4 mps 728 mmHg 22%
    20:00 +33°C° 0 mm 3 mps 728 mmHg 25%
    21:00 +33°C° 0 mm 3 mps 728 mmHg 25%
    22:00 +33°C° 0 mm 4 mps 728 mmHg 25%
    23:00 +32°C° 0 mm 4 mps 728 mmHg 25%

    30 August, Friday

    Time Temperature Precipitation Wind Pressure Humidity
    00:00 +32°C° 0 mm 4 mps 728 mmHg 27%
    01:00 +30°C° 0 mm 3 mps 728 mmHg 29%
    02:00 +29°C° 0 mm 3 mps 728 mmHg 31%
    03:00 +29°C° 0 mm 3 mps 728 mmHg 33%
    04:00 +28°C° 0 mm 3 mps 728 mmHg 35%
    05:00 +28°C° 0 mm 3 mps 728 mmHg 36%
    06:00 +30°C° 0 mm 4 mps 728 mmHg 32%
    07:00 +33°C° 0 mm 4 mps 728 mmHg 27%
    08:00 +35°C° 0 mm 4 mps 729 mmHg 23%
    09:00 +37°C° 0 mm 4 mps 729 mmHg 21%
    10:00 +38°C° 0 mm 4 mps 729 mmHg 18%
    11:00 +41°C° 0 mm 4 mps 729 mmHg 16%
    12:00 +42°C° 0 mm 4 mps 728 mmHg 16%
    13:00 +43°C° 0 mm 5 mps 728 mmHg 15%
    14:00 +45°C° 0 mm 5 mps 728 mmHg 14%
    15:00 +42°C° 0 mm 6 mps 728 mmHg 15%
    16:00 +41°C° 0 mm 6 mps 727 mmHg 17%
    17:00 +40°C° 0 mm 6 mps 727 mmHg 18%
    18:00 +37°C° 0 mm 5 mps 727 mmHg 22%
    19:00 +35°C° 0 mm 4 mps 728 mmHg 25%
    20:00 +33°C° 0 mm 3 mps 728 mmHg 28%
    21:00 +31°C° 0 mm 3 mps 728 mmHg 27%
    22:00 +31°C° 0 mm 3 mps 728 mmHg 26%
    23:00 +31°C° 0 mm 3 mps 728 mmHg 25%

    31 August, Saturday

    Time Temperature Precipitation Wind Pressure Humidity
    00:00 +30°C° 0 mm 3 mps 727 mmHg 29%
    01:00 +29°C° 0 mm 3 mps 727 mmHg 32%
    02:00 +28°C° 0 mm 2 mps 727 mmHg 35%
    03:00 +28°C° 0 mm 2 mps 727 mmHg 37%
    04:00 +27°C° 0 mm 2 mps 727 mmHg 40%
    05:00 +27°C° 0 mm 3 mps 727 mmHg 42%
    06:00 +29°C° 0 mm 3 mps 727 mmHg 37%
    07:00 +31°C° 0 mm 3 mps 728 mmHg 33%
    08:00 +35°C° 0 mm 3 mps 728 mmHg 28%
    09:00 +36°C° 0 mm 3 mps 728 mmHg 24%
    10:00 +38°C° 0 mm 3 mps 728 mmHg 21%
    11:00 +40°C° 0 mm 3 mps 728 mmHg 18%
    12:00 +42°C° 0 mm 4 mps 728 mmHg 17%
    13:00 +43°C° 0 mm 5 mps 727 mmHg 16%
    14:00 +45°C° 0 mm 5 mps 727 mmHg 15%
    15:00 +42°C° 0 mm 6 mps 727 mmHg 16%
    16:00 +41°C° 0 mm 6 mps 727 mmHg 18%
    17:00 +40°C° 0 mm 6 mps 727 mmHg 20%
    18:00 +37°C° 0 mm 5 mps 727 mmHg 22%
    19:00 +35°C° 0 mm 4 mps 727 mmHg 23%
    20:00 +33°C° 0 mm 3 mps 727 mmHg 25%
    21:00 +31°C° 0 mm 3 mps 728 mmHg 24%
    22:00 +30°C° 0 mm 3 mps 728 mmHg 22%
    23:00 +30°C° 0 mm 3 mps 728 mmHg 21%
    Show more